Location: Éragny
(49.0167°N, 2.1000°E)
Time: 18:51:09
(UTC+00:00)

Daily predictions for brighter satellites

Satellite Brightness Start Highest point End
(mag) Time Altitude Azimuth Time Altitude Azimuth Time Altitude Azimuth
IGS 5A 4.5 20:10:03 10° S 20:14:04 47° W 20:18:06 10° NNW
H-2A R/B 2.0 20:10:35 10° NNE 20:14:42 88° E 20:18:48 10° SSW
SPOT 5 4.2 20:10:22 10° ESE 20:14:56 30° ENE 20:19:22 10° N
Cosmos 1486 Rocket 4.4 20:11:22 10° S 20:16:21 43° ESE 20:21:21 10° NE
Cosmos 2219 3.3 20:12:45 10° NNW 20:18:27 89° WSW 20:24:04 10° SSE
ATLAS 2AS CENTAUR R/B 3.9 20:15:42 10° SSE 20:21:51 26° ESE 20:27:52 10° ENE
Cosmos 1515 4.1 20:18:19 10° SSE 20:21:54 44° E 20:25:31 10° NNE
Cosmos 1328 Rocket 3.5 20:19:33 10° S 20:23:51 87° E 20:28:13 10° N
NOSS 3-4 (A) 3.3 20:20:20 10° SSW 20:25:57 62° SE 20:32:02 10° NE
NOSS 3-4 (C) 3.4 20:20:24 10° SSW 20:26:02 62° SE 20:32:08 10° NE
Terra 3.2 20:22:20 10° ESE 20:26:09 25° ENE 20:29:59 10° N
Cosmos 2082 3.9 20:21:04 10° NNW 20:26:40 61° ENE 20:32:13 10° SE
ARGOS Delta rocket 4.2 20:22:26 10° NNE 20:27:57 74° E 20:33:23 10° S
IRAS Rocket 4.3 20:22:53 10° NNE 20:28:31 70° ESE 20:34:08 10° S
Aureole 1 Rocket 2.7 20:29:22 10° S 20:32:24 38° ESE 20:35:13 10° NE
Cosmos 2263 Rocket 3.0 20:29:32 10° NNW 20:34:48 39° NE 20:40:00 10° ESE
Cosmos 1743 2.7 20:32:25 10° N 20:36:14 72° E 20:39:59 10° SSE
ISS -3.2 20:33:56 10° WNW 20:37:15 58° N 20:40:34 10° E
Cosmos 1340 2.8 20:34:06 10° S 20:37:45 55° E 20:41:25 10° NNE
USA 267 4.3 20:31:36 10° ENE 20:37:45 45° N 20:43:53 10° WNW
EXPRESS MD2 3.9 20:35:38 10° WNW 20:41:52 54° SSW 20:44:49 13° SE
Cosmos 1933 Rocket 3.6 20:39:33 10° N 20:44:02 76° E 20:48:30 10° SSE
Cosmos 2034 Rocket 4.3 20:38:53 10° SSE 20:44:55 51° E 20:51:02 10° NNE
Cosmos 1656 4.5 20:39:27 10° SW 20:44:56 57° WNW 20:50:22 10° NNE
Cosmos 1503 Rocket 4.4 20:40:13 10° S 20:45:12 46° ESE 20:50:17 10° NNE
SPOT 1/Viking Rocket 4.0 20:43:49 10° S 20:48:56 61° WSW 20:54:04 10° NNW
Cosmos 2227 Rocket 3.0 20:43:46 10° NW 20:49:14 49° WSW 20:54:39 10° S
ATLAS 3B R/B 3.8 20:43:01 10° NW 20:49:53 43° NNE 20:57:01 10° ESE
Cosmos 1536 3.1 20:47:22 10° NNW 20:51:22 67° W 20:55:22 10° S
Cosmos 389 Rocket 2.5 20:47:58 10° NNW 20:51:29 80° W 20:54:56 10° S
RESURS DK-1 3.6 20:50:49 12° SSE 20:53:32 22° ESE 20:56:47 10° NE
Cosmos 405 4.4 20:51:14 10° NNW 20:54:20 34° W 20:57:26 10° SSW
ATLAS CENTAUR R/B 4.3 20:51:54 10° NNW 20:54:56 16° NNE 20:57:56 10° NE
ERS-1 Rocket 3.2 20:53:05 13° SE 20:57:30 57° ENE 21:02:27 10° N
Okean 1 3.7 20:54:11 11° SSE 20:57:49 46° E 21:01:42 10° NNE
Cosmos 2344 3.5 20:50:58 10° SSW 20:58:18 60° ESE 21:05:49 10° NE
Meteor 1-19 Rocket 4.3 20:55:48 10° S 21:01:03 52° E 21:06:18 10° NNE
Cosmos 1980 Rocket 2.3 20:55:45 10° S 21:01:13 55° ESE 21:06:45 10° NE
BREEZE M DEB (TANK) 3.6 20:58:40 10° W 21:02:24 68° SSW 21:15:46 10° ESE
SJ 16-02 1.8 20:59:24 10° S 21:03:28 40° ESE 21:07:34 10° NE
SL-4 R/B 3.0 21:01:39 10° WNW 21:05:52 37° SW 21:08:46 16° SSE
Cosmos 2369 3.7 21:00:26 10° SSW 21:06:01 68° ESE 21:11:40 10° NNE
Resurs 01 Rocket 3.2 21:02:18 10° SSW 21:06:13 31° W 21:10:11 10° NNW
Cosmos 2322 Rocket 3.9 21:07:18 12° ESE 21:09:00 13° E 21:11:35 10° ENE
Cosmos 1844 Rocket 4.4 21:10:31 10° N 21:14:54 23° NE 21:19:15 10° E
Cosmos 44 Rocket 3.7 21:11:01 10° NNW 21:15:38 51° NE 21:19:17 16° ESE
Helios 1A Rocket 3.1 21:15:01 14° S 21:18:22 66° WSW 21:22:22 10° NNW
Cosmos 1975 3.3 21:16:34 10° N 21:20:32 49° ENE 21:22:59 21° SE
Ariane Rocket 4.4 21:16:22 10° SSW 21:20:58 34° W 21:25:36 10° NNW
Cosmos 1697 Rocket 3.3 21:15:26 10° SW 21:21:03 61° WNW 21:26:41 10° NNE
BREEZE-M DEB (TANK) 1.5 21:22:18 10° W 21:24:31 70° SSW 21:27:06 17° ESE
Cosmos 1378 3.5 21:22:33 21° SSE 21:24:37 45° E 21:28:08 10° NNE
Cosmos 2297 Rocket 4.4 21:22:06 10° WNW 21:25:49 18° W 21:29:31 10° SW
Cosmos 1184 Rocket 3.9 21:22:59 10° SW 21:25:51 38° WNW 21:28:43 10° N
Cosmos 2228 Rocket 3.1 21:23:19 14° S 21:27:10 71° E 21:31:43 10° NNE
SL-24 R/B - RUBIN 2 4.0 21:23:19 10° NNW 21:27:38 56° NE 21:30:48 18° ESE
Cosmos 2292 Rocket 2.7 21:25:16 10° N 21:28:23 64° ENE 21:29:43 29° SSE
CZ-4B R/B 4.3 21:26:54 10° NNW 21:29:01 16° WNW 21:31:05 10° WSW
ASTRO F (AKARI) 4.2 21:27:27 24° S 21:29:09 78° WSW 21:32:19 10° NNW
Cosmos 2227 4.5 21:23:49 10° NNW 21:29:33 64° ENE 21:33:39 19° SE
NOSS 2-1 (C) 4.5 21:34:20 18° E 21:34:20 18° E 21:36:02 10° ENE
Cosmos 1869 Rocket 3.8 21:29:11 10° NNW 21:33:40 71° W 21:37:00 18° S
Meteor 2-9 Rocket 4.5 21:29:18 10° NNW 21:35:04 69° W 21:39:44 15° S
Cosmos 921 Rocket 3.9 21:31:03 10° NNW 21:35:22 44° WSW 21:38:44 15° S
Cosmos 1092 Rocket 4.0 21:35:25 10° N 21:41:39 86° W 21:46:19 18° S
USA 215 4.0 21:37:39 10° ENE 21:43:17 30° SE 21:47:17 17° S
Meteor 1-18 Rocket 4.2 21:38:43 14° S 21:43:39 79° E 21:49:18 10° NNE
SL-16 R/B 2.9 21:43:30 22° SSE 21:46:21 35° ESE 21:51:27 10° NE
ARIANE 5 R/B 2.7 21:45:15 23° S 21:48:04 79° WSW 21:52:37 10° NNW
Cosmos 1634 Rocket 4.0 21:44:50 17° S 21:49:44 74° E 21:55:55 10° NNE
Cosmos 1354 Rocket 4.4 21:45:56 10° SSW 21:51:10 67° WNW 21:56:29 10° NNE
SPOT 5 3.8 21:48:32 14° SSW 21:52:48 46° W 21:57:47 10° NNW
Cosmos 1777 Rocket 3.9 21:48:47 10° SSW 21:53:54 87° ESE 21:59:12 10° NNE
Cosmos 482 Debris 4.4 21:51:04 10° WNW 21:54:09 54° SSW 21:56:05 29° SE
CZ-2C R/B 4.1 21:49:40 10° N 21:54:25 69° WNW 21:58:54 11° SSW
Spot 2 Rocket 4.4 21:50:44 14° SSW 21:54:44 41° W 21:59:31 10° NNW
CZ-4C R/B 4.2 21:53:46 10° NW 21:59:42 33° NNE 22:06:43 10° E
Cosmos 1707 Rocket 3.5 21:58:26 24° S 22:01:07 85° E 22:05:33 10° N
Terra 2.5 22:00:31 19° SSW 22:03:38 49° W 22:08:16 10° NNW
Cosmos 2278 3.8 21:59:53 10° SSW 22:05:33 81° WNW 22:11:17 10° NNE
Cosmos 2026 Rocket 4.3 22:03:28 10° NNW 22:09:33 64° W 22:13:55 20° S
Cosmos 1346 Rocket 2.7 22:08:38 28° SSW 22:10:41 87° WNW 22:14:43 10° NNE
ATLAS 2AS CENTAUR R/B 3.0 22:04:15 10° SW 22:12:05 88° NW 22:19:39 10° NE
ISS -3.6 22:10:46 10° WNW 22:14:02 50° SSW 22:14:22 47° S
Cosmos 2360 Rocket 3.2 22:12:46 24° SE 22:14:20 28° ESE 22:19:04 10° NE
Meteor 2-15 Rocket 4.4 22:11:04 24° S 22:14:50 73° E 22:20:55 10° NNE
USA 81 4.2 22:11:16 21° SSW 22:14:54 74° W 22:20:13 10° N
Meteor 2-10 4.4 22:11:53 10° N 22:17:06 53° ENE 22:19:35 28° SE
Cosmos 2263 Rocket 3.0 22:13:33 10° NW 22:18:45 41° WSW 22:21:48 22° SSW
Meteor 1-4 Rocket 2.5 22:15:38 10° N 22:19:05 64° ENE 22:19:55 46° SE
USA 267 3.6 22:13:46 10° ESE 22:20:14 65° NNE 22:26:43 10° NW
ERS-2 4.1 22:18:28 10° NE 22:20:37 15° E 22:20:37 15° E
SAR-Lupe-4 3.9 22:19:21 10° N 22:22:55 64° WNW 22:24:36 29° SW
Cosmos 1441 Rocket 3.1 22:22:39 44° SSE 22:23:40 68° E 22:27:22 10° NNE
Cosmos 1733 Rocket 3.6 22:25:59 10° NNW 22:30:19 52° W 22:32:21 29° SSW
RESURS DK-1 3.5 22:27:20 10° SW 22:31:17 43° NW 22:35:15 10° NNE
Cosmos 1538 Rocket 4.4 22:27:15 10° NNW 22:32:22 53° WSW 22:34:46 29° S
ATLAS CENTAUR R/B 2.8 22:30:22 10° NNW 22:35:01 40° NE 22:38:21 17° ESE
Cosmos 1066 Rocket 4.2 22:32:08 29° S 22:35:12 76° E 22:40:53 10° NNE
Cosmos 1726 2.7 22:32:22 10° N 22:35:54 43° ENE 22:36:41 37° ESE
Cosmos 2242 Rocket 4.5 22:37:36 31° SE 22:38:49 37° E 22:43:00 10° NNE
Cosmos 1908 Rocket 3.5 22:35:39 10° N 22:40:00 74° ENE 22:41:24 42° SSE
ATLAS 3B R/B 3.0 22:33:48 10° NW 22:41:06 69° SW 22:45:21 28° SSE
ALOS 2 3.3 22:40:21 30° ESE 22:42:01 44° ENE 22:46:12 10° N
SJ 16-02 3.4 22:38:30 10° WSW 22:42:10 26° WNW 22:45:51 10° N
NOSS 2-1 (E) 2.6 22:42:30 54° SW 22:43:08 89° NW 22:46:26 10° NE
Cosmos 1862 Rocket 4.0 22:41:16 26° SSW 22:43:36 57° WNW 22:48:03 10° N
Iridium 2 4.3 22:40:04 10° NNW 22:43:41 47° W 22:44:51 34° SW
Cosmos 2266 Rocket 4.0 22:38:31 10° N 22:44:50 78° E 22:47:56 32° SSE
Cosmos 1980 Rocket 3.9 22:40:32 10° WSW 22:45:32 32° NW 22:50:35 10° NNE
NOSS 3-1 (C) 4.4 22:40:46 10° NW 22:47:50 60° NE 22:55:50 12° ESE
Cosmos 923 Rocket 4.0 22:45:25 10° NNW 22:50:47 81° WSW 22:53:00 36° SSE
Cosmos 2333 Rocket 3.1 22:50:06 28° SE 22:51:28 31° ESE 22:56:23 10° NE
Cosmos 2322 Rocket 2.1 22:49:04 28° SSW 22:52:07 80° ESE 22:57:45 10° NNE
Cosmos 1805 3.6 22:48:31 10° NNW 22:52:20 55° W 22:53:20 41° SW
BREEZE-M DEB (TANK) 2.5 22:51:39 10° W 23:00:30 - ESE 22:53:18 50° W
Cosmos 2279 Rocket 4.4 22:50:48 21° SSW 22:55:03 60° WNW 23:01:13 10° N
Cosmos 44 Rocket 4.4 22:52:57 10° WNW 22:56:54 27° WSW 22:57:58 25° SW
MINOTAUR IV R/B 4.5 22:57:24 37° SSW 22:59:11 89° WNW 23:03:43 10° NNE
Cosmos 1844 Rocket 2.6 22:53:53 10° NNW 22:59:30 84° WSW 23:01:53 36° SSE
Cosmos 1937 Rocket 3.8 22:59:10 37° SSE 23:00:45 49° ESE 23:05:51 10° NNE
Cosmos 1356 4.0 23:03:40 41° WSW 23:04:17 47° WNW 23:07:30 10° N
Cosmos 1766 3.2 23:00:37 10° NNW 23:04:33 77° W 23:05:21 54° SSW
Gblst 52 Del rocket 4.4 23:01:22 15° SW 23:06:28 54° SSE 23:12:04 10° ENE
Cosmos 2112 Rocket 4.0 23:06:05 10° NNW 23:11:26 83° WSW 23:13:28 39° SSE
Cosmos 1818 3.5 23:07:06 10° NW 23:12:36 90° WSW 23:15:02 35° SE
Cosmos 1680 Rocket 3.5 23:07:52 10° NNW 23:13:10 71° WSW 23:15:04 40° S
Cosmos 1844 3.7 23:10:57 10° NNW 23:16:46 74° WSW 23:19:08 37° SSE
Cosmos 2219 Rocket 2.9 23:17:40 32° SE 23:19:07 38° ESE 23:24:16 10° NE
NOSS 2-1 (D) 4.3 23:17:43 16° W 23:19:50 35° NW 23:22:57 10° NNE
Cosmos 990 Rocket 4.4 23:18:03 25° SW 23:21:07 61° WNW 23:26:20 10° NNE
NOSS 2-1 (C) 4.5 23:21:29 15° W 23:23:44 33° NW 23:26:48 10° NNE
USA 215 3.2 23:20:16 10° ENE 23:26:52 85° SSE 23:33:27 10° SW
Cosmos 1898 Rocket 3.6 23:25:28 32° SSW 23:28:01 77° WNW 23:33:22 10° NNE
Cosmos 1707 3.2 23:29:22 44° ESE 23:29:48 46° E 23:33:32 10° NNE
SL-16 R/B 3.1 23:25:18 12° SW 23:30:20 45° NW 23:35:48 10° NNE
Cosmos 858 Rocket 4.4 23:28:58 40° S 23:30:53 78° ESE 23:36:12 10° NNE
Okean 1-7 3.7 23:30:15 33° SW 23:31:50 48° WNW 23:36:05 10° N
Cosmos 1238 Rocket 3.9 23:31:05 10° NNE 23:33:30 22° ENE 23:33:40 22° E
Iridium 4 Rocket 4.2 23:34:23 10° NNW 23:38:34 39° W 23:40:16 29° SW
Nadezhda 2 Rocket 4.5 23:33:51 10° N 23:40:03 78° E 23:42:51 35° SSE
Cosmos 1470 2.6 23:36:57 10° NNW 23:40:50 75° W 23:41:21 62° SSW
Cosmos 1553 Rocket 4.4 23:38:26 31° SSE 23:41:03 50° E 23:47:00 10° NNE
COSMOS 2428 3.3 23:42:41 34° SSE 23:44:23 43° ESE 23:49:44 10° NE
Cosmos 2221 Rocket 4.2 23:45:00 37° SE 23:46:02 43° E 23:50:14 10° NNE
Cosmos 2237 Rocket 4.0 23:44:21 16° ESE 23:46:05 18° E 23:49:45 10° ENE
ADEOS Rocket 2.8 23:45:12 38° S 23:47:28 75° WSW 23:53:28 10° NNW
KORONAS-FOTON 4.3 23:47:32 43° ESE 23:47:56 45° E 23:51:35 10° NNE
Okean 3 4.3 23:47:44 31° WSW 23:49:06 41° WNW 23:53:09 10° N
CZ-4C R/B 3.0 23:42:08 10° NW 23:49:14 82° NE 23:56:33 15° SE
Meteor 1-21 4.3 23:49:35 37° S 23:51:55 71° E 23:57:43 10° NNE
SL-08 ROCKET BODY 4.3 23:46:51 10° NNW 23:52:46 78° W 23:55:09 37° S
Cosmos 1437 Rocket 4.2 23:49:48 10° N 23:53:07 29° ENE 23:54:22 23° ESE
ERS-2 2.8 23:50:48 10° N 23:54:17 45° WNW 23:55:01 39° WSW
Cosmos 1953 3.8 23:51:49 10° N 23:55:24 30° ENE 23:56:54 23° ESE
